Weather History for RJOO - July, 2014

Change the Weather History Date:

Sunday, July 27, 2014

  Actual Average Record
Temperature  
Mean Temperature 82 °F -  
Max Temperature 87 °F 90 °F 98 °F (2002)
Min Temperature 77 °F 74 °F 69 °F (2003)
Cooling Degree Days 17    
Growing Degree Days 32 (Base 50)    
Moisture  
Dew Point 74 °F    
Average Humidity 78    
Maximum Humidity 94    
Minimum Humidity 58    
Precipitation  
Precipitation 0.00 in - - ()
Sea Level Pressure  
Sea Level Pressure 29.77 in    
Wind  
Wind Speed 7 mph ()    
Max Wind Speed 13 mph    
Max Gust Speed -    
Visibility 6.2 miles    
Events Rain    
Averages and records for this station are not official NWS values.
T = Trace of Precipitation, MM = Missing Value Source: Averaged Metar Reports

Daily Weather History Graph

Daily Weather History Graph

Search for Another Location

Airport or City:

Trip Planner

Search our weather history database for the weather conditions in past years. The results will help you decide how hot, cold, wet, or windy it might be!

Date:

Astronomy

Jul. 27, 2014 Rise Set
Actual Time 5:04 AM JST 7:05 PM JST
Civil Twilight 4:35 AM JST 7:33 PM JST
Nautical Twilight 4:01 AM JST 8:07 PM JST
Astronomical Twilight 3:24 AM JST 8:43 PM JST
Moon 5:13 AM JST (7/27) 6:57 PM JST (7/27)
Length of Visible Light 14h 57m
Length of Day
14h 01m
New Moon, 0% of the Moon is Illuminated
Jul 27
New Moon
Aug 4
First Quarter
Aug 11
Full
Aug 17
Last Quarter
Aug 25
New

Hourly Weather History & Observations

Time (JST) Temp. Heat Index Dew Point Humidity Pressure Visibility Wind Dir Wind Speed Gust Speed Precip Events Conditions
5:00 AM 82.4 °F 89.5 °F 75.2 °F 79% 29.77 in 5.6 mi WSW 4.6 mph - N/A   Partly Cloudy
6:00 AM 82.4 °F 89.5 °F 75.2 °F 79% 29.80 in 5.6 mi WSW 5.8 mph - N/A   Scattered Clouds
7:00 AM 84.2 °F 94.1 °F 77.0 °F 79% 29.80 in 6.2 mi SW 6.9 mph - N/A   Partly Cloudy
8:00 AM 86.0 °F 95.1 °F 75.2 °F 70% 29.80 in 6.2 mi WSW 5.8 mph - N/A   Scattered Clouds
9:00 AM 86.0 °F 95.1 °F 75.2 °F 70% 29.80 in 6.2 mi SW 8.1 mph - N/A   Scattered Clouds
10:00 AM 87.8 °F 97.6 °F 75.2 °F 66% 29.77 in 6.2 mi SW 10.4 mph - N/A   Mostly Cloudy
10:31 AM 87.8 °F 97.6 °F 75.2 °F 66% 29.77 in 6.2 mi WSW 10.4 mph - N/A Rain Rain Showers
10:40 AM 82.4 °F 89.5 °F 75.2 °F 79% 29.80 in 6.2 mi WSW 11.5 mph - N/A Rain Rain Showers
10:43 AM 80.6 °F 86.2 °F 75.2 °F 84% 29.80 in 6.2 mi WSW 11.5 mph - N/A Rain Rain Showers
10:47 AM 80.6 °F 87.1 °F 77.0 °F 89% 29.80 in 6.2 mi NW 9.2 mph - N/A Rain Rain Showers
11:00 AM 84.2 °F 94.1 °F 77.0 °F 79% 29.77 in 6.2 mi NNW 5.8 mph - N/A Rain Light Rain Showers
12:00 PM 84.2 °F 90.9 °F 73.4 °F 70% 29.77 in 6.2 mi North 11.5 mph - N/A   Mostly Cloudy
12:37 PM 82.4 °F 88.2 °F 73.4 °F 74% 29.77 in 6.2 mi NW 10.4 mph - N/A Rain Rain Showers
12:50 PM 78.8 °F - 75.2 °F 89% 29.77 in 6.2 mi NNW 12.7 mph - N/A Rain Heavy Rain Showers
1:00 PM 77.0 °F - 75.2 °F 94% 29.77 in 6.2 mi North 6.9 mph - N/A Rain Heavy Rain Showers
1:02 PM 77.0 °F - 75.2 °F 94% 29.77 in 6.2 mi North 6.9 mph - N/A Rain Heavy Rain Showers
1:05 PM 77.0 °F - 75.2 °F 94% 29.77 in 6.2 mi North 6.9 mph - N/A Rain Rain Showers
1:09 PM 77.0 °F - 75.2 °F 94% 29.77 in 6.2 mi North 4.6 mph - N/A Rain Rain Showers
1:13 PM 77.0 °F - 75.2 °F 94% 29.77 in 6.2 mi NE 3.5 mph - N/A Rain Rain Showers
1:22 PM 78.8 °F - 75.2 °F 89% 29.77 in 6.2 mi East 4.6 mph - N/A Rain Light Rain Showers
2:00 PM 80.6 °F 86.2 °F 75.2 °F 84% 29.74 in 6.2 mi East 5.8 mph - N/A   Mostly Cloudy
3:00 PM 82.4 °F 88.2 °F 73.4 °F 74% 29.74 in 6.2 mi East 6.9 mph - N/A   Mostly Cloudy
4:00 PM 84.2 °F 92.3 °F 75.2 °F 74% 29.71 in 6.2 mi ESE 3.5 mph - N/A   Mostly Cloudy
5:00 PM 84.2 °F 90.9 °F 73.4 °F 70% 29.71 in 6.2 mi NNE 4.6 mph - N/A   Scattered Clouds
6:00 PM 84.2 °F 87.3 °F 68.0 °F 58% 29.71 in 6.2 mi NNE 10.4 mph - N/A   Scattered Clouds
7:00 PM 80.6 °F 82.7 °F 66.2 °F 61% 29.74 in 6.2 mi North 10.4 mph - N/A   Scattered Clouds
8:00 PM 78.8 °F - 66.2 °F 65% 29.74 in 6.2 mi North 8.1 mph - N/A   Partly Cloudy